Location: ?????
(38.2579°N, 22.9711°E)
Time: 13:52:34
(UTC+00:00)

SL-16 R/B - Pass Details

Date: 13 December 2025
Orbit: 841 x 844 km, 71.0° (Epoch: 18 January)

Event Time Altitude Azimuth Distance (km) Brightness Sun altitude
Rises 17:21:22 0° 199° (SSW) 3,381 5.7 -25.3°
Reaches altitude 10° 17:23:48 10° 199° (SSW) 2,450 4.9 -25.8°
Maximum altitude 17:29:26 85° 111° (ESE) 850 2.0 -26.8°
Enters shadow 17:29:45 80° 48° (NE) 860 2.0 -26.9°
